Notices

What's New in latest Release from April 7th, 2021:

- Updated Glossary, including Speed of Maximum Gust, and Total Hourly Precipitation

- Updated national and regional climate services offices contacts and prices information

- Addition of station inventory lists for 1981-2010, 1971-2000, and 1961-1990 Normals.

If you haven't already, please take our survey and provide feedback about our website: https://eccc.sondage-survey.ca/f/LanguageSelection.aspx?s=442ca660-fcf1-47c0-95a9-59707d6fd709

Hourly Data Report for October 18, 2019

CORAL HARBOUR A
NUNAVUT
Current Station Operator: NAVCAN

64°11'36.000" N
83°21'34.000" W
62.20 m
2301002
71915
YZS

Download Data

Hourly Data (October 2019)
Hourly Data Report for October 18, 2019
TIME
LST
Temp Definition
°C
Dew Point Definition
°C
Rel Hum Definition
%
Precip. Amount Definition
mm

Wind Dir Definition
10's deg

Wind Spd Definition
km/h
Visibility Definition
km
Stn Press Definition
kPa
Hmdx Definition


Wind Chill Definition


Weather Definition


00:00 -8.6 -11.0 83   33 12 24.1 101.24   -14 LegendNANA
01:00 -8.9 -11.0 85   34 9 24.1 101.21   -14 Mostly Cloudy
02:00 -9.6 -11.2 88   33 10 24.1 101.24   -15 LegendNANA
03:00 -9.3 -11.0 88   34 11 24.1 101.27   -15 LegendNANA
04:00 -9.8 -11.3 89   35 7 24.1 101.28   -14 Mostly Cloudy
05:00 -9.0 -10.3 90   2 8 24.1 101.28   -13 LegendNANA
06:00 -8.7 -11.2 82   5 14 24.1 101.30   -15 LegendNANA
07:00 -7.8 -10.1 84   7 8 24.1 101.32   -12 Mostly Cloudy
08:00 -6.5 -9.7 78   9 12 24.1 101.31   -12 LegendNANA
09:00 -5.8 -9.1 77   11 13 24.1 101.32   -11 LegendNANA
10:00 -5.1 -8.2 79   12 15 24.1 101.29   -11 Cloudy
11:00 -4.5 -7.7 79   11 22 24.1 101.25   -11 LegendNANA
12:00 -3.9 -6.7 81   12 23 24.1 101.22   -11 LegendNANA
13:00 -3.2 -5.9 82   12 25 24.1 101.20   -10 Snow
14:00 -2.5 -6.4 75   15 24 24.1 101.20   -9 Snow
15:00 -2.2 -6.0 75   16 27 24.1 101.20   -9 LegendNANA
16:00 -2.1 -5.9 75   15 23 24.1 101.18   -8 Cloudy
17:00 -2.2 -5.6 77   15 22 24.1 101.18   -8 LegendNANA
18:00 -1.9 -5.2 78   14 25 24.1 101.16   -8 LegendNANA
19:00 -1.8 -5.2 78   15 23 24.1 101.16   -8 Snow
20:00 -1.9 -5.4 77   15 27 24.1 101.14   -9 Snow
21:00 -1.8 -5.1 78   16 26 24.1 101.13   -8 Snow
22:00 -1.3 -4.6 78   15 33 24.1 101.09   -8 Snow
23:00 -1.1 -4.3 79   15 27 24.1 101.06   -8 Snow

Notes on Data Quality.

Legend

  • E = Estimated
  • M = Missing
  • NA = Not Available*
  • [empty] = Indicates an unobserved value
Date modified: